User: anonymous
Location: Unspecified
(0.0000°N, 0.0000°E)
Time: 09:04:17
(UTC+02:00)
Language:

PSLV R/B - Orbit

View from above orbital plane
View from above orbital plane
View from above satellite
View from above satellite

Ground track
Ground track

The orbit data is extracted from the following two-line orbital elements,

1 29713U 07001E   14245.46179006  .00000803  00000-0  10516-3 0  4069
2 29713 097.6521 236.5585 0026220 197.3791 162.6528 14.82743607412949
Epoch (UTC): 02 September 2014 11:04:58
Eccentricity: 0.0026220
inclination: 97.6521°
perigee height: 602 km
apogee height: 639 km
right ascension of ascending node: 236.5585°
argument of perigee: 197.3791°
revolutions per day: 14.82743607
mean anomaly at epoch: 162.6528°
orbit number at epoch: 41294

The dashed part of the orbit path shows where the satellite is in the earth's shadow,  

DLR